Regional Weather Roundup
Issued by NWS

Home | Current Version | Previous Version | Graphics & Text | Print | Product List | Glossary Off
Versions: 1 2 3 4 5 6 7 8 9 10 11 12 13 14 15 16 17 18 19 20 21 22 23 24 25 26 27 28 29 30 31 32 33 34 35 36 37 38

000
ASUS43 KDMX 262007
RWRIA

WEATHER ROUNDUP FOR IOWA
NATIONAL WEATHER SERVICE DES MOINES IA
200 PM CST FRI DEC 26 2014

NOTE: "FAIR" INDICATES FEW OR NO CLOUDS BELOW 12,000 FEET WITH NO
SIGNIFICANT WEATHER AND/OR OBSTRUCTIONS TO VISIBILITY.

* - THESE STATIONS ARE NOT NWS STATIONS...THUS NOT UNDER NWS
QUALITY CONTROL.  THEY ALSO DO NOT REPORT WEATHER SUCH
AS PRECIPITATION OR FOG.

IAZ001>003-012>014-020>022-031>034-043>046-262100-
   NORTHWEST IOWA

CITY           SKY/WX    TMP DP  RH WIND       PRES   REMARKS
CARROLL *      CLOUDY    32  32 100 NE17      29.94F FOG     WCI  21
CHEROKEE *     CLOUDY    30  30 100 N9        29.98R WCI  22
DENISON *      CLOUDY    32  32 100 N15       29.93F FOG     WCI  22
LE MARS *      CLOUDY    32  28  86 N13G20    30.01R WCI  22
ORANGE CITY *  CLOUDY    30  27  86 N13G18    29.99R WCI  20
SHELDON *      CLOUDY    30  28  93 N18       29.97S WCI  18
SIOUX CITY     CLOUDY    33  27  78 N14       30.01R WCI  23
SPENCER        CLOUDY    31  27  85 N16       29.97S WCI  20
STORM LAKE *   CLOUDY    30  30 100 N16       29.97R WCI  19
$$

IAZ055>058-069>071-079>083-090>094-262100-
   SOUTHWEST IOWA

CITY           SKY/WX    TMP DP  RH WIND       PRES   REMARKS
ATLANTIC *     CLOUDY    34  32  93 NE12G18   29.93F FOG     WCI  25
AUDUBON *      CLOUDY    32  28  86 N12G17    29.94F FOG     WCI  23
CLARINDA *     CLOUDY    34  34 100 NE9       29.95S WCI  26
COUNCIL BLFS * CLOUDY    32  32 100 N13G18    29.94R WCI  22
CRESTON *      FOG       32  32 100 NE13      29.90F VSB 1/4 WCI  22
HARLAN  *      CLOUDY    32  32 100 N15G21    29.97F WCI  22
LAMONI         CLOUDY    40  33  76 N8        29.91S WCI  34
RED OAK *      CLOUDY    34  34 100 N10       29.94S FOG     WCI  26
SHENANDOAH *   CLOUDY    36  34  93 NE13      29.95S FOG     WCI  27
$$

IAZ047>049-059>061-072>074-084-262100-
   CENTRAL IOWA

CITY           SKY/WX    TMP DP  RH WIND       PRES   REMARKS
AMES           CLOUDY    34  31  88 N9        29.95S FOG     WCI  27
ANKENY *       CLOUDY    34  32  93 N10       29.94S FOG     WCI  26
CHARITON *     SUNNY     39  34  81 NW9       29.93S WCI  33
DES MOINES     CLOUDY    35  31  85 N8        29.95S FOG     WCI  29
GRINNELL*      CLOUDY    41  34  75 NW6       29.93R
KNOXVILLE *    SUNNY     37  32  81 N12       29.91F WCI  30
MARSHALLTOWN   CLOUDY    34  32  92 N12       29.92S WCI  25
PELLA *        CLOUDY    39  34  81 NW9       29.94S WCI  33
PERRY *        CLOUDY    34  34 100 N10       29.94S FOG     WCI  26
$$

IAZ004>006-015-016-023>025-035-036-262100-
   NORTH CENTRAL IOWA

CITY           SKY/WX    TMP DP  RH WIND       PRES   REMARKS
ALGONA *       CLOUDY    32  32 100 N16       29.96S WCI  21
CLARION *      CLOUDY    32  32 100 N14       29.94S FOG     WCI  22
ESTHERVILLE    CLOUDY    30  27  88 N18       29.97F WCI  18
FORT DODGE *   CLOUDY    32  28  86 N10       29.95F WCI  24
MASON CITY     CLOUDY    33  31  92 N17       29.96S FOG     WCI  22
FOREST CITY *  CLOUDY    32  32 100 N13       29.96R FOG     WCI  22
IOWA FALLS *   CLOUDY    32  32 100 N8        29.94S FOG     WCI  25
$$

IAZ007>011-017>019-026>030-037>042-050>054-066-262100-
   NORTHEAST IOWA

CITY           SKY/WX    TMP DP  RH WIND       PRES   REMARKS
CEDAR RAPIDS   CLOUDY    44  35  70 SW8       29.92S
CHARLES CITY * CLOUDY    34  34 100 N13       29.93F FOG     WCI  25
CLINTON *      CLOUDY    50  36  57 SW9       29.96S
DECORAH *      PTSUNNY   39  34  81 NW7       29.92R WCI  34
DUBUQUE        CLOUDY    43  34  70 SW7       29.93S
MONTICELLO *   SUNNY     45  36  70 W6        29.93S
OELWEIN *      PTSUNNY   41  34  75 CALM      29.92F
WATERLOO       CLOUDY    38  33  82 N12       29.93S WCI  30
$$

IAZ064-065-067-068-078-262100-
   EAST CENTRAL IOWA

CITY           SKY/WX    TMP DP  RH WIND       PRES   REMARKS
DAVENPORT      CLOUDY    50  35  56 SW7       29.94F
IOWA CITY      CLOUDY    48  36  63 SW9       29.94F
MT. PLEASANT * CLOUDY    52  39  62 SW8       29.94F
MUSCATINE *    SUNNY     52  37  58 SW12      29.95S
QUAD CITIES    PTSUNNY   51  37  58 SW9       29.93F
$$

IAZ062-063-075>077-085>089-095>099-262100-
   SOUTHEAST IOWA

CITY           SKY/WX    TMP DP  RH WIND       PRES   REMARKS
BURLINGTON     PTSUNNY   54  39  57 SW12      29.94F
FAIRFIELD *    SUNNY     50  39  66 SW9       29.93S
FORT MADISON *   N/A     55  43  62 S7        29.95S
KEOKUK *       SUNNY     55  41  58 SW9G15    29.94S
OSKALOOSA *    PTSUNNY   46  37  71 NW6       29.92F
CENTERVILLE *  SUNNY     48  39  71 SW7       29.92F
OTTUMWA        CLOUDY    48  36  63 W6        29.92S
WASHINGTON *   SUNNY     50  39  66 SW10      29.93S
$$

ABBREVIATIONS USED IN REMARKS
   TC - TEMPERATURES IN CELSIUS
  WCI - WIND CHILL INDEX
   HX - HEAT INDEX
  VSB - VISIBILITY
$$



USA.gov is the U.S. government's official web portal to all federal, state and local government web resources and services.